Stations météo

réclame
Mon MeteoGroup
Dunkerque, France (7010): Température de l'air & dewpoint: 18.05.2019 05:00:00 - 24.05.2019 05:00:00 (CEST)Dunkerque, France (7010): Vitesse du vent & gusts: 18.05.2019 05:00:00 - 24.05.2019 05:00:00 (CEST)Dunkerque, France (7010): Direction du vent: 18.05.2019 05:00:00 - 24.05.2019 05:00:00 (CEST)Dunkerque, France (7010): reduced air pressure: 18.05.2019 05:00:00 - 24.05.2019 05:00:00 (CEST)Dunkerque, France (7010): visibility: 18.05.2019 05:00:00 - 24.05.2019 05:00:00 (CEST)Dunkerque, France (7010): Quantités de précipitations: 18.05.2019 05:00:00 - 24.05.2019 05:00:00 (CEST)
Date & Time tt [°C] td [°C] ff [km/h] ff [knt] fx [km/h] fx [knt] dd ppp [hPa] vv [km] rr [mm]
24.05.2019 05:00:00 12,6 10,0 15 8 29 15 SW 1015,3 15 0,0
24.05.2019 04:00:00 13,1 8,6 15 8 24 13 SW 1015,4 - 0,0
24.05.2019 03:00:00 14,1 7,4 11 6 24 13 SW 1015,5 - 0,0
24.05.2019 02:00:00 15,2 6,2 19 10 29 16 W 1015,7 15 0,0
24.05.2019 01:00:00 16,4 6,8 13 7 25 14 SW 1015,9 - 0,0
24.05.2019 00:00:00 16,7 8,4 13 7 23 13 SW 1016,0 - 0,0
23.05.2019 23:00:00 17,3 9,9 15 8 24 13 W 1016,3 15 0,0
23.05.2019 22:00:00 16,6 11,9 4 2 17 9 W 1016,1 - 0,0
23.05.2019 21:00:00 17,2 11,0 8 4 23 12 W 1016,1 - 0,0
23.05.2019 20:00:00 17,2 11,5 17 9 27 15 W 1016,0 15 0,0
23.05.2019 19:00:00 17,3 10,4 19 10 33 18 W 1016,2 - 0,0
23.05.2019 18:00:00 18,2 9,5 13 7 25 14 NW 1016,4 - 0,0
23.05.2019 17:00:00 18,2 9,3 6 3 13 7 NE 1016,9 15 0,0
23.05.2019 16:00:00 17,9 8,7 7 4 16 9 NNE 1017,0 - 0,0
23.05.2019 15:00:00 18,2 9,5 10 5 16 9 NNE 1017,3 - 0,0
23.05.2019 14:00:00 18,0 7,1 8 5 13 7 NE 1017,6 15 0,0
23.05.2019 13:00:00 17,3 6,8 9 5 18 10 NW 1018,1 - 0,0
23.05.2019 12:00:00 17,4 6,9 10 5 20 11 WNW 1018,4 - 0,0
23.05.2019 11:00:00 17,3 7,3 11 6 21 12 W 1018,5 - 0,0
23.05.2019 10:00:00 17,3 6,8 13 7 23 13 W 1018,5 - 0,0
23.05.2019 09:00:00 15,6 6,6 11 6 17 9 SSW 1018,6 - 0,0
23.05.2019 08:00:00 12,8 7,7 11 6 16 9 SSW 1018,6 10 0,0
23.05.2019 07:00:00 11,1 7,6 10 5 14 8 SSW 1018,3 - 0,0
23.05.2019 06:00:00 10,2 6,9 5 3 9 5 SSW 1018,5 - 0,0
23.05.2019 05:00:00 10,6 7,5 4 2 10 5 SW 1018,8 - 0,0
23.05.2019 04:00:00 10,8 7,5 8 4 10 5 SSW 1018,9 - 0,0
23.05.2019 03:00:00 11,3 7,4 6 3 10 6 S 1019,0 - 0,0
23.05.2019 02:00:00 12,3 7,4 7 4 13 7 SSW 1019,3 12 0,0
23.05.2019 01:00:00 13,9 6,5 10 5 13 7 S 1019,4 - 0,0
23.05.2019 00:00:00 14,5 6,6 6 4 9 5 SSW 1019,6 - 0,0
22.05.2019 23:00:00 15,8 5,7 7 4 11 6 SSE 1019,8 - 0,0
22.05.2019 22:00:00 14,5 10,1 7 4 10 6 ESE 1019,8 - 0,0
22.05.2019 21:00:00 14,4 11,0 8 4 12 7 E 1019,7 - 0,0
22.05.2019 20:00:00 15,0 9,8 9 5 13 7 ENE 1019,8 12 0,0
22.05.2019 19:00:00 15,4 8,6 8 5 11 6 ENE 1020,1 - 0,0
22.05.2019 18:00:00 14,6 8,5 9 5 11 6 ENE 1020,4 - 0,0
22.05.2019 17:00:00 14,9 8,1 9 5 13 7 NE 1020,8 - 0,0
22.05.2019 16:00:00 15,1 8,3 8 5 11 6 NNE 1021,0 - 0,0
22.05.2019 15:00:00 14,7 8,4 7 4 13 7 NNE 1021,2 - 0,0
22.05.2019 14:00:00 15,0 8,0 8 4 13 7 NNW 1021,1 - 0,0
22.05.2019 13:00:00 14,5 8,9 8 4 13 7 NW 1021,2 - 0,0
22.05.2019 12:00:00 14,3 8,7 9 5 15 8 NNW 1021,2 - 0,0
22.05.2019 11:00:00 14,5 8,9 10 6 15 8 NW 1020,6 - 0,0
22.05.2019 10:00:00 14,0 10,2 11 6 18 10 NNW 1020,5 - 0,0
22.05.2019 09:00:00 13,7 11,0 14 8 21 11 W 1020,2 - 0,0
22.05.2019 08:00:00 13,2 10,9 12 7 16 9 W 1019,9 - 0,0
22.05.2019 07:00:00 11,8 9,5 3 2 8 5 WSW 1019,9 - 0,0
22.05.2019 06:00:00 10,9 8,6 5 3 13 7 SSW 1019,8 - 0,0
22.05.2019 05:00:00 11,3 8,7 9 5 13 7 SSW 1019,6 - 0,0
22.05.2019 04:00:00 11,2 8,9 8 4 14 7 SSW 1019,8 - 0,0
22.05.2019 03:00:00 11,2 9,3 11 6 15 8 SSW 1019,6 - 0,0
22.05.2019 02:00:00 11,0 9,4 9 5 11 6 SSW 1019,6 15 0,0
22.05.2019 01:00:00 11,5 9,7 7 4 11 6 S 1019,7 - 0,0
22.05.2019 00:00:00 11,9 9,1 6 4 10 5 SE 1019,8 - 0,0
21.05.2019 23:00:00 12,0 10,2 8 4 15 8 E 1019,7 - 0,0
21.05.2019 22:00:00 12,4 10,3 10 6 23 12 ENE 1019,6 - 0,0
21.05.2019 21:00:00 12,7 10,6 18 10 23 12 NE 1019,3 - 0,0
21.05.2019 20:00:00 14,8 11,0 8 4 12 6 NNE 1018,9 - 0,0
21.05.2019 19:00:00 16,2 10,3 9 5 15 8 WNW 1018,6 - 0,0
21.05.2019 18:00:00 15,7 10,2 5 3 10 5 NNE 1018,6 - 0,0
21.05.2019 17:00:00 15,5 10,3 6 3 12 6 NE 1018,6 - 0,0
21.05.2019 16:00:00 14,8 9,8 7 4 16 9 N 1018,6 - 0,0
21.05.2019 15:00:00 14,8 10,6 11 6 20 11 NNW 1018,5 - 0,0
21.05.2019 14:00:00 14,7 10,5 15 8 21 12 NW 1018,2 6 0,0
21.05.2019 13:00:00 14,5 10,7 11 6 19 10 NW 1017,8 - 0,0
21.05.2019 12:00:00 13,9 10,3 14 8 21 11 NW 1017,7 - 0,0
21.05.2019 11:00:00 13,6 10,4 14 8 20 11 NW 1017,5 - 0,0
21.05.2019 10:00:00 12,6 10,8 10 6 16 9 N 1017,3 - 0,0
21.05.2019 09:00:00 11,8 11,2 9 5 16 9 NNW 1016,6 - 0,0
21.05.2019 08:00:00 10,9 10,1 7 4 12 7 N 1016,3 - 0,0
21.05.2019 07:00:00 11,3 10,2 10 5 16 9 NNE 1015,8 - 0,0
21.05.2019 06:00:00 12,2 10,6 9 5 17 9 NNW 1015,3 - 0,0
21.05.2019 05:00:00 12,5 10,6 13 7 16 9 NW 1014,9 - 0,0
21.05.2019 04:00:00 12,5 10,0 9 5 17 9 NNW 1014,9 - 0,0
21.05.2019 03:00:00 12,4 10,6 11 6 17 9 NW 1014,7 - 0,0
21.05.2019 02:00:00 12,5 10,9 9 5 13 7 NW 1014,9 10 0,0
21.05.2019 01:00:00 12,5 10,9 7 4 13 7 NW 1014,9 - 0,0
21.05.2019 00:00:00 12,7 10,8 8 4 16 8 WNW 1014,7 - 0,0
20.05.2019 23:00:00 12,8 10,7 12 6 21 11 WNW 1014,6 10 0,0
20.05.2019 22:00:00 12,7 10,4 9 5 18 10 WNW 1014,2 - 0,0
20.05.2019 21:00:00 12,5 10,4 8 4 11 6 WNW 1013,5 - 0,0
20.05.2019 20:00:00 12,8 10,9 7 4 12 7 NNW 1013,3 8 -
20.05.2019 19:00:00 13,2 11,1 10 5 20 11 NNW 1013,0 - 0,0
20.05.2019 18:00:00 13,7 10,9 14 8 21 11 NW 1013,0 - 0,0
20.05.2019 17:00:00 13,9 10,7 13 7 20 11 WNW 1013,1 - 0,0
20.05.2019 16:00:00 13,3 10,1 13 7 23 12 NNW 1013,0 - 0,0
20.05.2019 15:00:00 12,8 9,8 18 10 25 13 NNW 1012,8 - 0,0
20.05.2019 14:00:00 12,9 10,1 18 10 33 18 N 1012,4 - 0,0
20.05.2019 13:00:00 12,8 9,6 23 12 33 18 N 1011,8 - 0,0
20.05.2019 12:00:00 12,1 9,3 19 10 30 16 N 1011,6 - 0,0
20.05.2019 11:00:00 11,7 9,4 19 10 29 16 NNW 1011,5 10 0,0
20.05.2019 10:00:00 11,9 9,5 18 10 29 16 N 1011,0 - 0,0
20.05.2019 09:00:00 11,5 9,1 18 10 29 16 N 1010,9 - 0,0
20.05.2019 08:00:00 11,3 9,2 15 8 33 18 N 1010,4 - 0,0
20.05.2019 07:00:00 11,1 9,2 20 11 32 17 NNE 1010,1 - 0,0
20.05.2019 06:00:00 11,4 9,3 22 12 31 17 N 1009,9 - 0,0
20.05.2019 05:00:00 11,3 9,6 20 11 33 18 N 1009,7 10 0,0
20.05.2019 04:00:00 11,1 9,4 23 12 31 17 NNW 1009,6 - 0,0
20.05.2019 03:00:00 11,4 9,8 21 11 29 16 N 1009,8 - 0,0
20.05.2019 02:00:00 11,4 9,8 16 9 28 15 N 1010,1 - 0,0
20.05.2019 01:00:00 11,3 9,7 19 10 31 17 N 1010,2 - 0,0
20.05.2019 00:00:00 11,5 9,9 16 9 30 16 N 1010,2 - 0,0
19.05.2019 23:00:00 11,6 9,8 22 12 29 16 NNE 1010,1 - 0,0
19.05.2019 22:00:00 11,9 9,6 14 8 26 14 N 1010,0 - 0,0
19.05.2019 21:00:00 11,9 9,5 15 8 26 14 N 1009,6 - 0,0
19.05.2019 20:00:00 11,8 10,0 16 9 25 13 NW 1009,1 - 0,2
19.05.2019 19:00:00 11,6 9,8 16 9 24 13 NNW 1009,1 - 0,0
19.05.2019 18:00:00 12,0 10,1 18 10 26 14 NNW 1009,3 - 0,0
19.05.2019 17:00:00 12,3 10,5 17 9 27 14 N 1009,5 8 0,0
19.05.2019 16:00:00 12,1 10,3 18 10 27 15 N 1009,2 - 0,0
19.05.2019 15:00:00 12,0 10,4 16 9 26 14 N 1009,2 - 0,2
19.05.2019 14:00:00 12,0 10,4 16 8 22 12 N 1009,5 - 0,6
19.05.2019 13:00:00 11,8 9,9 17 9 26 14 NNE 1009,5 - 0,6
19.05.2019 12:00:00 12,0 10,1 23 12 29 16 NNE 1009,3 - 0,6
19.05.2019 11:00:00 12,1 10,0 22 12 34 18 NNE 1009,1 - 0,2
19.05.2019 10:00:00 11,9 10,3 26 14 34 19 NNE 1008,6 - 1,0
19.05.2019 09:00:00 12,2 10,6 22 12 29 15 NNE 1008,4 - 0,8
19.05.2019 08:00:00 12,5 10,6 21 12 27 14 NNE 1008,1 6 0,0
19.05.2019 07:00:00 12,2 10,4 21 11 29 16 NNE 1007,7 - 0,0
19.05.2019 06:00:00 12,2 10,4 16 9 24 13 N 1007,5 - 0,0
19.05.2019 05:00:00 12,3 10,7 16 9 21 12 N 1007,6 10 0,2
19.05.2019 04:00:00 12,5 10,4 13 7 18 10 N 1007,9 - 0,6
19.05.2019 03:00:00 12,8 10,3 3 2 13 7 NNE 1008,2 - 0,2
19.05.2019 02:00:00 13,0 9,8 8 5 22 12 ENE 1008,2 - 0,0
19.05.2019 01:00:00 13,2 10,0 18 10 24 13 ENE 1007,9 - 0,0
19.05.2019 00:00:00 13,1 10,3 19 11 26 14 ENE 1007,9 - 0,0
18.05.2019 23:00:00 13,3 10,1 16 9 24 13 ENE 1008,1 6 0,0
18.05.2019 22:00:00 13,3 10,3 14 8 24 13 ENE 1007,9 - 0,0
18.05.2019 21:00:00 13,5 10,3 16 9 23 13 NE 1007,4 - 0,0
18.05.2019 20:00:00 13,7 9,7 17 9 26 14 NE 1007,2 - 0,0
18.05.2019 19:00:00 14,0 10,4 19 11 27 15 NNE 1006,9 - 0,0
18.05.2019 18:00:00 14,7 10,5 20 11 26 14 NNE 1006,7 - 0,0
18.05.2019 17:00:00 15,2 10,4 19 10 26 14 NNE 1006,6 2,0 0,0
18.05.2019 16:00:00 14,9 10,7 18 10 21 12 NE 1006,9 - 0,0
18.05.2019 15:00:00 16,0 10,5 16 9 22 12 NNE 1006,7 - 0,0
18.05.2019 14:00:00 14,9 9,7 16 9 19 11 NNE 1006,5 - 0,0
18.05.2019 13:00:00 15,3 9,4 14 8 17 9 NNE 1006,7 - 0,0
18.05.2019 12:00:00 15,1 9,5 14 8 16 9 NNE 1006,4 - 0,0
18.05.2019 11:00:00 14,3 8,9 12 7 16 9 NNE 1006,4 7 0,0
18.05.2019 10:00:00 14,9 8,4 6 3 8 4 ENE 1006,3 - 0,0
18.05.2019 09:00:00 13,8 8,4 5 3 9 5 SE 1005,9 - 0,0
18.05.2019 08:00:00 12,2 8,7 6 3 9 5 SSE 1005,9 - 0,0
18.05.2019 07:00:00 11,8 8,5 4 2 7 4 ESE 1005,5 - 0,0
18.05.2019 06:00:00 11,6 8,4 2 1 8 4 E 1005,3 - 0,0
18.05.2019 05:00:00 11,8 8,6 6 4 11 6 ESE 1005,6 8 0,0

tt = Température de l'air
td = dewpoint
ff = Vitesse du vent
fx = gusts
dd = Direction du vent
ppp = reduced air pressure
vv = visibility
rr = Quantités de précipitations

stations d'obs. à proximité